Back to catalog

COSMOS 2251 DEB

AliveLEO
NORAD 34756·DEBRIS·🇷🇺 Russia

Launched Jun 16, 1993 from Plesetsk Cosmodrome

Loading…

Next Passes (next 24 hours)

TLE

FreshSource: Space-Track

Epoch: Sep 13, 2026, 07:26 UTC

1 34756U 93036AAA 26256.30997557  .00001267  00000-0  10178-2 0  9997
2 34756  74.0063  12.5715 0339730 191.0645 168.2870 13.67881720871752

Track COSMOS 2251 DEB in real time with AllMySat

Download on the App Store